sat.trackr.live / text

‹ back to catalog

GEESAT-5 09

NORAD 65558 · 2025-201J

PAYLOAD ACTIVE UNKNOWN

§ Identity

Operator
Country
PRC
Launch date
2025-09-08
Launch site
YSLA
Launch vehicle
Mass (kg)
RCS (m²)

External: N2YO · Heavens-Above · Gunter

§ Orbital elements

Epoch: 2026-09-20T10:00:00.739872Z

Period
97.01 min
Inclination
49.9822°
Eccentricity
0.0008744
Mean motion
14.84390150 rev/d
Perigee alt
609.4 km
Apogee alt
621.6 km
Semi-major
6,993.6 km
B*
1.2648e-4
RAAN
316.9479°
Arg perigee
273.7258°
Mean anomaly
86.2680°
Rev number
5,594

§ Raw data

GEESAT-5 091 65558U 25201J   26263.41667523  .00000846  00000+0  12648-3 0  99932 65558  49.9822 316.9479 0008744 273.7258  86.2680 14.84390150 55949

JSON: /api/v1/satellites/65558 · /tle

For live sub-satellite position, see the globe view (requires WebGL).

§ Visibility from observer

Set your observer location to see the next 7 days of passes ≥ 10°. The values pass through the URL so the page stays shareable.

No JS? Fill the form by hand. The geolocation button needs JavaScript.